Cumberland, WV

12:34 PM EST on January 20, 2018 (GMT -0500)
Greater Cumberland Regional

Weather History for KCBE - March, 2014

Change the Weather History Date:

Tuesday, March 25, 2014

  Actual Average (KMRB) Record (KMRB)
Temperature  
Mean Temperature 32 °F -  
Max Temperature 37 °F 53 °F 83 °F (1939)
Min Temperature 28 °F 32 °F 15 °F (1940)
Degree Days  
Heating Degree Days 32    
Moisture  
Dew Point 23 °F    
Average Humidity 74    
Maximum Humidity 100    
Minimum Humidity 47    
Precipitation  
Precipitation 0.00 in - - ()
Sea Level Pressure  
Sea Level Pressure 30.00 in    
Wind  
Wind Speed 1 mph (NNW)    
Max Wind Speed 7 mph    
Max Gust Speed -    
Visibility 7 miles    
Events      
Averages and records for this station are not official NWS values.
T = Trace of Precipitation, MM = Missing Value Source: NWS Daily Summary

Daily Weather History Graph

Daily Weather History Graph

Search for Another Location

Airport or City:

Trip Planner

Search our weather history database for the weather conditions in past years. The results will help you decide how hot, cold, wet, or windy it might be!

Date:

Astronomy

Mar. 25, 2014 Rise Set
Actual Time 7:10 AM EDT 7:32 PM EDT
Civil Twilight 6:43 AM EDT 7:59 PM EDT
Nautical Twilight 6:11 AM EDT 8:30 PM EDT
Astronomical Twilight 5:39 AM EDT 9:03 PM EDT
Moon 3:29 AM EDT (3/25) 2:01 PM EDT (3/25)
Length of Visible Light 13h 15m
Length of Day
12h 21m
Waning Crescent, 32% of the Moon is Illuminated
Mar 25
Waning Crescent
Mar 30
New
Apr 7
First Quarter
Apr 15
Full
Apr 22
Last Quarter

Hourly Weather History & Observations

Time (EDT) Temp. Windchill Dew Point Humidity Pressure Visibility Wind Dir Wind Speed Gust Speed Precip Events Conditions
12:11 AM 28.4 °F - 12.2 °F 51% 30.14 in 10.0 mi Calm Calm - N/A   Clear
12:31 AM 30.2 °F - 14.0 °F 51% 30.14 in 10.0 mi Calm Calm - N/A   Clear
12:52 AM 30.2 °F 26.7 °F 12.2 °F 47% 30.13 in 10.0 mi ESE 3.5 mph - N/A   Clear
1:12 AM 28.4 °F - 14.0 °F 55% 30.12 in 10.0 mi Calm Calm - N/A   Clear
1:32 AM 28.4 °F - 14.0 °F 55% 30.12 in 10.0 mi Calm Calm - N/A   Clear
1:52 AM 28.4 °F - 15.8 °F 59% 30.12 in 10.0 mi Calm Calm - N/A   Clear
2:12 AM 28.4 °F - 12.2 °F 51% 30.12 in 10.0 mi Calm Calm - N/A   Clear
2:32 AM 28.4 °F - 14.0 °F 55% 30.10 in 10.0 mi Calm Calm - N/A   Clear
2:52 AM 28.4 °F - 14.0 °F 55% 30.10 in 10.0 mi Calm Calm - N/A   Clear
3:12 AM 28.4 °F - 14.0 °F 55% 30.09 in 10.0 mi Calm Calm - N/A   Clear
3:32 AM 28.4 °F - 14.0 °F 55% 30.08 in 10.0 mi Calm Calm - N/A   Clear
3:52 AM 28.4 °F - 14.0 °F 55% 30.08 in 10.0 mi Calm Calm - N/A   Clear
4:12 AM 30.2 °F - 12.2 °F 47% 30.07 in 10.0 mi Calm Calm - N/A   Clear
4:32 AM 30.2 °F - 14.0 °F 51% 30.07 in 10.0 mi Calm Calm - N/A   Clear
4:52 AM 30.2 °F 26.7 °F 14.0 °F 51% 30.07 in 10.0 mi North 3.5 mph - N/A   Scattered Clouds
5:12 AM 30.2 °F 25.4 °F 14.0 °F 51% 30.07 in 10.0 mi North 4.6 mph - N/A   Mostly Cloudy
5:32 AM 30.2 °F 26.7 °F 12.2 °F 47% 30.06 in 10.0 mi NNW 3.5 mph - N/A   Mostly Cloudy
5:52 AM 30.2 °F 26.7 °F 12.2 °F 47% 30.06 in 10.0 mi North 3.5 mph - N/A   Scattered Clouds
6:12 AM 30.2 °F - 12.2 °F 47% 30.06 in 10.0 mi Calm Calm - N/A   Scattered Clouds
6:32 AM 30.2 °F - 12.2 °F 47% 30.06 in 10.0 mi Calm Calm - N/A   Scattered Clouds
6:52 AM 30.2 °F - 12.2 °F 47% 30.07 in 10.0 mi Calm Calm - N/A   Scattered Clouds
7:12 AM 30.2 °F - 15.8 °F 55% 30.06 in 7.0 mi Calm Calm - N/A   Mostly Cloudy
7:32 AM 28.4 °F - 19.4 °F 69% 30.06 in 2.0 mi Calm Calm - N/A   Overcast
7:52 AM 28.4 °F - 21.2 °F 74% 30.05 in 2.0 mi Calm Calm - N/A   Overcast
8:12 AM 28.4 °F - 23.0 °F 80% 30.06 in 2.0 mi Calm Calm - N/A   Overcast
8:32 AM 28.4 °F - 23.0 °F 80% 30.06 in 3.0 mi Calm Calm - N/A   Unknown
8:52 AM 28.4 °F - 24.8 °F 86% 30.06 in 4.0 mi Calm Calm - N/A   Mostly Cloudy
9:13 AM 28.4 °F - 26.6 °F 93% 30.06 in 1.2 mi Calm Calm - N/A   Overcast
9:33 AM 28.4 °F - 26.6 °F 93% 30.05 in 1.2 mi Calm Calm - N/A   Mostly Cloudy
9:53 AM 30.2 °F - 26.6 °F 86% 30.05 in 2.0 mi Calm Calm - N/A   Unknown
10:13 AM 30.2 °F - 26.6 °F 86% 30.05 in 1.8 mi Calm Calm - N/A   Mostly Cloudy
10:33 AM 30.2 °F - 28.4 °F 93% 30.05 in 1.8 mi Calm Calm - N/A   Mostly Cloudy
10:53 AM 30.2 °F - 28.4 °F 93% 30.04 in 1.2 mi Calm Calm - N/A   Overcast
11:13 AM 32.0 °F - 28.4 °F 87% 30.04 in 2.0 mi Calm Calm - N/A   Overcast
11:33 AM 32.0 °F - 28.4 °F 87% 30.04 in 3.0 mi Calm Calm - N/A   Overcast
11:53 AM 32.0 °F - 28.4 °F 87% 30.03 in 2.5 mi Calm Calm - N/A   Overcast
12:13 PM 32.0 °F - 28.4 °F 87% 30.02 in 2.5 mi Calm Calm - N/A   Unknown
12:33 PM 32.0 °F - 28.4 °F 87% 30.01 in 3.0 mi Calm Calm - N/A   Unknown
12:53 PM 32.0 °F - 28.4 °F 87% 30.00 in 2.5 mi Calm Calm - N/A   Overcast
1:13 PM 32.0 °F - 30.2 °F 93% 29.99 in 4.0 mi Calm Calm - N/A   Mostly Cloudy
1:33 PM 33.8 °F - 28.4 °F 81% 29.97 in 3.0 mi Calm Calm - N/A   Overcast
1:53 PM 33.8 °F - 28.4 °F 81% 29.96 in 10.0 mi Calm Calm - N/A   Mostly Cloudy
2:13 PM 33.8 °F - 28.4 °F 81% 29.95 in 10.0 mi Calm Calm - N/A   Scattered Clouds
2:33 PM 35.6 °F - 28.4 °F 75% 29.93 in 10.0 mi Calm Calm - N/A   Clear
2:53 PM 35.6 °F - 26.6 °F 70% 29.93 in 10.0 mi Calm Calm - N/A   Clear
3:13 PM 35.6 °F - 24.8 °F 65% 29.92 in 10.0 mi Calm Calm - N/A   Clear
3:33 PM 35.6 °F - 24.8 °F 65% 29.91 in 10.0 mi Calm Calm - N/A   Mostly Cloudy
3:53 PM 37.4 °F - 24.8 °F 60% 29.90 in 10.0 mi Calm Calm - N/A   Scattered Clouds
4:13 PM 37.4 °F 32.8 °F 24.8 °F 60% 29.89 in 10.0 mi SSE 5.8 mph - N/A   Scattered Clouds
4:33 PM 37.4 °F 34.9 °F 26.6 °F 65% 29.89 in 10.0 mi ESE 3.5 mph - N/A   Scattered Clouds
4:53 PM 37.4 °F 33.8 °F 26.6 °F 65% 29.89 in 10.0 mi South 4.6 mph - N/A   Mostly Cloudy
5:13 PM 35.6 °F - 28.4 °F 75% 29.90 in 7.0 mi Calm Calm - N/A   Overcast
5:34 PM 35.6 °F 32.8 °F 28.4 °F 75% 29.90 in 10.0 mi West 3.5 mph - N/A   Overcast
5:54 PM 35.6 °F - 30.2 °F 81% 29.90 in 7.0 mi Calm Calm - N/A   Overcast
6:14 PM 33.8 °F - 28.4 °F 81% 29.90 in 10.0 mi Calm Calm - N/A   Scattered Clouds
6:34 PM 33.8 °F - 30.2 °F 87% 29.91 in 10.0 mi Calm Calm - N/A   Clear
6:54 PM 33.8 °F - 30.2 °F 87% 29.92 in 10.0 mi Calm Calm - N/A   Mostly Cloudy
7:14 PM 33.8 °F - 30.2 °F 87% 29.92 in 10.0 mi Calm Calm - N/A   Mostly Cloudy
7:34 PM 32.0 °F - 30.2 °F 93% 29.92 in 10.0 mi Calm Calm - N/A   Scattered Clouds
7:54 PM 32.0 °F - 30.2 °F 93% 29.92 in 10.0 mi Calm Calm - N/A   Clear
8:14 PM 32.0 °F - 30.2 °F 93% 29.93 in 10.0 mi Calm Calm - N/A   Mostly Cloudy
8:34 PM 32.0 °F 28.7 °F 30.2 °F 93% 29.93 in 7.0 mi SSE 3.5 mph - N/A   Scattered Clouds
8:54 PM 32.0 °F - 30.2 °F 93% 29.93 in 7.0 mi Calm Calm - N/A   Scattered Clouds
9:14 PM 32.0 °F - 30.2 °F 93% 29.94 in 7.0 mi Calm Calm - N/A   Scattered Clouds
9:34 PM 32.0 °F - 30.2 °F 93% 29.94 in 5.0 mi Calm Calm - N/A   Clear
9:54 PM 30.2 °F - 30.2 °F 100% 29.94 in 4.0 mi Calm Calm - N/A   Clear
10:14 PM 30.2 °F - 28.4 °F 93% 29.94 in 3.0 mi Calm Calm - N/A   Clear
10:34 PM 30.2 °F - 30.2 °F 100% 29.94 in 4.0 mi Calm Calm - N/A   Clear
10:54 PM 30.2 °F - 30.2 °F 100% 29.95 in 4.0 mi Calm Calm - N/A   Scattered Clouds
11:14 PM 30.2 °F 25.4 °F 30.2 °F 100% 29.95 in 5.0 mi NW 4.6 mph - N/A   Scattered Clouds
11:34 PM 32.0 °F 25.6 °F 30.2 °F 93% 29.95 in 10.0 mi NNW 6.9 mph - N/A   Scattered Clouds
11:54 PM 32.0 °F 27.5 °F 23.0 °F 69% 29.96 in 10.0 mi WNW 4.6 mph - N/A   Mostly Cloudy